Flag for Canada Weather past 2 weeks in Halton Hills, Ontario, Canada

Now
82 °F

Scattered clouds.


Feels Like: 81 °F
Forecast: 55 / 81 °F
Wind: 9 mph from West

Location: Toronto Pearson International Airport

Current Time: Aug 2, 2015 at 12:41:07 PM

Latest Report: Aug 2, 2015 at 12:00 PM


Visibility: 15 mi

Pressure: 29.81 "Hg

Humidity: 37%

Dew point: 54 °F

Location of Halton HillsLocation

Historic Weather in Halton Hills — Graph

°F

Halton Hills temperature yesterday

Maximum temperature yesterday: 81 °F (at 4:00 PM)
Minimum temperature yesterday: 63 °F (at 6:00 AM)
Average temperature yesterday: 72 °F

Past Weeks' High & Low Weather Summary

 TemperatureHumidityPressure
High91 °F (Jul 28, 3:00 PM)83% (Jul 19, 3:00 AM)30.03 "Hg (Jul 19, 3:00 AM)
Low59 °F (Jul 22, 5:00 AM)30% (Jul 24, 12:00 PM)29.61 "Hg (Jul 21, 3:03 AM)
Average75 °F56%29.86 "Hg
* Reported Jul 18 11:00 AM — Aug 2 11:00 AM, Halton Hills, Weather by CustomWeather, © 2015

Note: Actual official high and low records may vary slightly from our data, if they occured in-between our weather recording intervals... More about our weather records

Advertising

Halton Hills weather history for previous 24 hours

 ConditionsComfort  
Time TempWeatherWind HumidityBarometerVisibility
11:00 AM
Sun, Aug 2
81 °FScattered clouds.14 mph39%29.81 "Hg15 mi
10:00 AM77 °FScattered clouds.13 mph51%29.83 "Hg15 mi
9:00 AM72 °FPartly sunny.6 mph61%29.83 "Hg15 mi
8:00 AM66 °FPartly sunny.6 mph73%29.83 "Hg15 mi
7:00 AM63 °FPassing clouds.6 mph77%29.82 "Hg15 mi
6:00 AM61 °FPassing clouds.7 mph77%29.82 "Hg15 mi
5:00 AM64 °FPassing clouds.5 mph73%29.82 "Hg15 mi
4:00 AM63 °FPassing clouds.2 mph73%29.82 "Hg15 mi
3:00 AM63 °FPassing clouds.5 mph77%29.83 "Hg15 mi
2:00 AM66 °FPassing clouds.3 mph68%29.83 "Hg15 mi
1:00 AM64 °FPassing clouds.8 mph73%29.84 "Hg15 mi
12:00 AM66 °FClear.6 mph64%29.84 "Hg15 mi
11:00 PM
Sat, Aug 1
70 °FClear.8 mph57%29.84 "Hg15 mi
10:00 PM72 °FPassing clouds.8 mph50%29.84 "Hg15 mi
9:00 PM73 °FPassing clouds.12 mph47%29.83 "Hg15 mi
8:00 PM77 °FPassing clouds.14 mph42%29.80 "Hg15 mi
7:00 PM77 °FScattered clouds.16 mph39%29.80 "Hg15 mi
6:00 PM81 °FScattered clouds.17 mph37%29.79 "Hg15 mi
5:00 PM81 °FScattered clouds.23 mph37%29.78 "Hg15 mi
4:00 PM81 °FBroken clouds.21 mph37%29.80 "Hg15 mi
3:00 PM79 °FBroken clouds.13 mph42%29.81 "Hg15 mi
2:00 PM79 °FBroken clouds.18 mph42%29.83 "Hg15 mi
1:00 PM75 °FPartly sunny.15 mph41%29.85 "Hg15 mi
12:00 PM75 °FScattered clouds.15 mph47%29.85 "Hg15 mi
Weather by CustomWeather, © 2015

See weather overviewHow to use our weather pages